Tracking 30306 objects as of 23-Apr-2025
HD Live streaming from Space Station
objects crossing your sky now

QIANFAN-61

Track QIANFAN-61 now!
10-day predictions
QIANFAN-61 is classified as:


NORAD ID: 62791
Int'l Code: 2025-016G
Perigee: 1,063.2 km
Apogee: 1,082.0 km
Inclination: 89.0 °
Period: 106.5 minutes
Semi major axis: 7443 km
RCS: Unknown
Launch date: January 23, 2025
Source: People's Republic of China (PRC)
Launch site: Taiyaun Space Center, China (TSC)
Your satellite tracking list
Your tracking list is empty




NASA's NSSDC Master Catalog

Two Line Element Set (TLE):
1 62791U 25016G   25112.98224806  .00000058  00000-0  70485-4 0  9990
2 62791  88.9902 127.1575 0012605 307.0696  52.9303 13.51848664 15684
Source of the keplerian elements: AFSPC